Tracking 27112 objects as of 28-Mar-2023
HD Live streaming from Space Station
objects crossing your sky now

SUCHAI

Track SUCHAI now!
10-day predictions
SUCHAI is classified as:


NORAD ID: 42788
Int'l Code: 2017-036Z
Perigee: 430.6 km
Apogee: 439.1 km
Inclination: 97.2 °
Period: 93.1 minutes
Semi major axis: 6805 km
RCS: Unknown
Launch date: June 23, 2017
Source: Chile (CHLE)
Launch site: SRIHARIKOTA (SRI)

Uplink (MHz):
Downlink (MHz): 437.225
Beacon (MHz): 437.229
Mode: CW
Call sign: SUCHAI
Status: Active

Your satellite tracking list
Your tracking list is empty




NASA's NSSDC Master Catalog

Two Line Element Set (TLE):
1 42788U 17036Z   23086.66142285  .00056457  00000-0  11423-2 0  9999
2 42788  97.1582 128.2629 0006240  39.6874 320.4831 15.46240614320652
Source of the keplerian elements: AMSAT